| time (UTC) | temp F | wind direction | speed knots | gust knots | rain 1hr in | rain 24hr in | rain mn in | humidity % | barometer mb |
| 20260506124034 | 56 | 211 | 1.7 | 7.0 | 0.00 | 0.07 | 0.00 | 54 | 1016.1 |
| 20260506123533 | 56 | 40 | 1.7 | 7.0 | 0.00 | 0.07 | 0.00 | 51 | 1016.3 |
| 20260506123044 | 57 | 30 | 1.7 | 6.1 | 0.00 | 0.07 | 0.00 | 51 | 1016.2 |
| 20260506122533 | 57 | 276 | 1.7 | 6.1 | 0.00 | 0.07 | 0.00 | 55 | 1016.2 |
| 20260506122033 | 56 | 193 | 1.7 | 6.1 | 0.00 | 0.07 | 0.00 | 51 | 1016.3 |
| 20260506121543 | 56 | 152 | 2.6 | 7.0 | 0.00 | 0.07 | 0.00 | 56 | 1016.2 |
| 20260506121033 | 55 | 105 | 1.7 | 7.0 | 0.00 | 0.07 | 0.00 | 54 | 1016.4 |
| 20260506120534 | 55 | 98 | 1.7 | 6.1 | 0.00 | 0.07 | 0.00 | 56 | 1016.3 |
| 20260506120043 | 55 | 117 | 1.7 | 6.1 | 0.00 | 0.07 | 0.00 | 55 | 1016.4 |
| 20260506115535 | 54 | 193 | 0.9 | 5.2 | 0.00 | 0.11 | 0.00 | 56 | 1016.5 |
| 20260506115033 | 54 | 127 | 1.7 | 5.2 | 0.00 | 0.11 | 0.00 | 57 | 1016.5 |
| 20260506114546 | 54 | 79 | 1.7 | 5.2 | 0.00 | 0.11 | 0.00 | 55 | 1016.5 |
| 20260506114034 | 54 | 68 | 0.9 | 6.1 | 0.00 | 0.11 | 0.00 | 53 | 1016.5 |
| 20260506113534 | 54 | 152 | 1.7 | 7.0 | 0.00 | 0.11 | 0.00 | 52 | 1016.6 |
| 20260506113042 | 54 | 336 | 2.6 | 7.0 | 0.00 | 0.11 | 0.00 | 54 | 1016.6 |
| 20260506112533 | 54 | 102 | 2.6 | 7.0 | 0.00 | 0.11 | 0.00 | 57 | 1016.7 |
| 20260506112033 | 54 | 82 | 1.7 | 6.1 | 0.00 | 0.11 | 0.00 | 59 | 1016.7 |
| 20260506111544 | 53 | 46 | 1.7 | 7.0 | 0.00 | 0.11 | 0.00 | 53 | 1016.6 |
| 20260506111033 | 54 | 0 | 2.6 | 7.0 | 0.00 | 0.11 | 0.00 | 53 | 1016.8 |
| 20260506110534 | 55 | 46 | 1.7 | 7.8 | 0.00 | 0.11 | 0.00 | 55 | 1016.8 |
| 20260506110056 | 55 | 21 | 1.7 | 7.8 | 0.00 | 0.11 | 0.00 | 56 | 1016.8 |
| 20260506105534 | 54 | 33 | 1.7 | 7.8 | 0.00 | 0.11 | 0.00 | 56 | 1016.8 |
| 20260506105034 | 54 | 35 | 1.7 | 7.8 | 0.00 | 0.11 | 0.00 | 60 | 1016.9 |
| 20260506104553 | 53 | 349 | 0.9 | 7.0 | 0.00 | 0.11 | 0.00 | 60 | 1016.9 |
| 20260506104033 | 53 | 89 | 2.6 | 7.0 | 0.00 | 0.11 | 0.00 | 58 | 1016.8 |
| 20260506103533 | 53 | 70 | 3.5 | 7.0 | 0.00 | 0.11 | 0.00 | 55 | 1017.0 |
| 20260506103049 | 53 | 89 | 0.9 | 7.0 | 0.00 | 0.11 | 0.00 | 56 | 1017.0 |
| 20260506102535 | 53 | 105 | 1.7 | 7.0 | 0.00 | 0.11 | 0.00 | 58 | 1017.0 |
| 20260506102034 | 53 | 103 | 1.7 | 5.2 | 0.00 | 0.11 | 0.00 | 56 | 1017.0 |
| 20260506101553 | 53 | 39 | 1.7 | 7.0 | 0.00 | 0.11 | 0.00 | 57 | 1016.9 |
| 20260506101033 | 53 | 335 | 1.7 | 7.0 | 0.00 | 0.11 | 0.00 | 56 | 1017.0 |
| 20260506100533 | 53 | 28 | 2.6 | 7.0 | 0.00 | 0.11 | 0.00 | 56 | 1017.2 |
| 20260506100042 | 53 | 324 | 1.7 | 5.2 | 0.00 | 0.11 | 0.00 | 57 | 1017.0 |
| 20260506095536 | 53 | 105 | 1.7 | 8.7 | 0.00 | 0.13 | 0.00 | 57 | 1017.1 |
| 20260506095034 | 52 | 72 | 2.6 | 8.7 | 0.00 | 0.13 | 0.00 | 57 | 1017.2 |
| 20260506094552 | 52 | 83 | 0.9 | 7.8 | 0.00 | 0.13 | 0.00 | 57 | 1017.2 |
| 20260506094035 | 52 | 156 | 2.6 | 8.7 | 0.00 | 0.13 | 0.00 | 56 | 1017.3 |
| 20260506093535 | 52 | 89 | 2.6 | 8.7 | 0.00 | 0.13 | 0.00 | 57 | 1017.3 |
| 20260506093047 | 52 | 354 | 1.7 | 7.0 | 0.00 | 0.13 | 0.00 | 59 | 1017.3 |
| 20260506092535 | 52 | 124 | 0.9 | 7.0 | 0.00 | 0.13 | 0.00 | 60 | 1017.5 |
| 20260506092034 | 52 | 28 | 3.5 | 7.0 | 0.00 | 0.13 | 0.00 | 58 | 1017.4 |
| 20260506091549 | 51 | 46 | 0.9 | 7.0 | 0.00 | 0.13 | 0.00 | 61 | 1017.4 |
| 20260506091036 | 51 | 56 | 1.7 | 7.0 | 0.00 | 0.13 | 0.00 | 58 | 1017.5 |
| 20260506090533 | 51 | 9 | 2.6 | 7.0 | 0.00 | 0.13 | 0.00 | 59 | 1017.4 |
| 20260506090047 | 52 | 324 | 1.7 | 7.8 | 0.00 | 0.13 | 0.00 | 60 | 1017.4 |
| 20260506085534 | 51 | 74 | 1.7 | 7.8 | 0.00 | 0.13 | 0.00 | 60 | 1017.5 |
| 20260506085034 | 51 | 46 | 1.7 | 7.8 | 0.00 | 0.13 | 0.00 | 63 | 1017.4 |
| 20260506084549 | 51 | 53 | 1.7 | 6.1 | 0.00 | 0.13 | 0.00 | 62 | 1017.5 |
| 20260506084034 | 50 | 336 | 1.7 | 7.0 | 0.00 | 0.13 | 0.00 | 64 | 1017.5 |
| 20260506083534 | 50 | 131 | 1.7 | 7.0 | 0.00 | 0.13 | 0.00 | 63 | 1017.7 |
| 20260506083045 | 50 | 51 | 2.6 | 6.1 | 0.00 | 0.13 | 0.00 | 64 | 1017.7 |
| 20260506082537 | 50 | 342 | 2.6 | 7.8 | 0.00 | 0.13 | 0.00 | 65 | 1017.7 |
| 20260506082033 | 49 | 70 | 2.6 | 7.8 | 0.00 | 0.13 | 0.00 | 67 | 1017.7 |
| 20260506081541 | 49 | 347 | 1.7 | 7.8 | 0.00 | 0.13 | 0.00 | 67 | 1017.6 |
| 20260506081034 | 48 | 135 | 0.9 | 7.8 | 0.00 | 0.13 | 0.00 | 68 | 1017.5 |
| 20260506080534 | 48 | 63 | 1.7 | 5.2 | 0.00 | 0.13 | 0.00 | 71 | 1017.6 |
| 20260506073049 | 44 | 84 | 0.9 | 3.5 | 0.00 | 0.13 | 0.00 | 78 | 1017.8 |
| 20260506072533 | 43 | 135 | 0.9 | 3.5 | 0.00 | 0.13 | 0.00 | 78 | 1017.8 |
| 20260506072033 | 43 | 89 | 0.9 | 3.5 | 0.00 | 0.13 | 0.00 | 79 | 1017.8 |
| 20260506071600 | 43 | 51 | 0.9 | 4.3 | 0.00 | 0.13 | 0.00 | 79 | 1017.8 |
| 20260506071034 | 42 | 0 | 0.9 | 4.3 | 0.00 | 0.13 | 0.00 | 81 | 1017.8 |
| 20260506070534 | 42 | 32 | 0.9 | 4.3 | 0.00 | 0.13 | 0.00 | 82 | 1017.9 |
| 20260506062033 | 39 | 23 | 1.7 | 3.5 | 0.00 | 0.13 | 0.00 | 87 | 1017.7 |
| 20260506061548 | 39 | 32 | 0.9 | 2.6 | 0.00 | 0.13 | 0.00 | 87 | 1017.7 |
| 20260506061034 | 39 | 35 | 0.9 | 2.6 | 0.00 | 0.13 | 0.00 | 87 | 1017.6 |
| 20260506060536 | 39 | 72 | 0.9 | 2.6 | 0.00 | 0.13 | 0.00 | 87 | 1017.5 |
| 20260506051033 | 38 | 145 | 0.0 | 1.7 | 0.00 | 0.13 | 0.00 | 87 | 1017.6 |
| 20260506050534 | 38 | 0 | 0.0 | 1.7 | 0.00 | 0.13 | 0.00 | 86 | 1017.7 |
| 20260506045035 | 38 | 0 | 0.0 | 1.7 | 0.00 | 0.13 | 0.00 | 86 | 1017.5 |
| 20260506044553 | 38 | 28 | 0.0 | 1.7 | 0.00 | 0.13 | 0.00 | 86 | 1017.5 |
| 20260506044033 | 38 | 35 | 0.0 | 1.7 | 0.00 | 0.13 | 0.00 | 86 | 1017.5 |
| 20260506043536 | 38 | 15 | 0.0 | 1.7 | 0.00 | 0.13 | 0.00 | 86 | 1017.4 |
| 20260506043047 | 38 | 68 | 0.9 | 1.7 | 0.00 | 0.13 | 0.00 | 86 | 1017.4 |
| 20260506042533 | 38 | 56 | 0.0 | 1.7 | 0.00 | 0.13 | 0.00 | 86 | 1017.6 |
| 20260506042036 | 38 | 46 | 0.0 | 1.7 | 0.00 | 0.13 | 0.00 | 86 | 1017.6 |
| 20260506041559 | 38 | 0 | 0.0 | 0.9 | 0.00 | 0.13 | 0.00 | 87 | 1017.5 |
| 20260506041036 | 38 | 0 | 0.0 | 1.7 | 0.00 | 0.13 | 0.00 | 86 | 1017.6 |
| 20260506040536 | 38 | 56 | 0.0 | 1.7 | 0.00 | 0.13 | 0.00 | 86 | 1017.6 |
| 20260506040048 | 38 | 56 | 0.0 | 1.7 | 0.00 | 0.13 | 0.00 | 87 | 1017.5 |
| 20260506035536 | 38 | 76 | 0.0 | 0.9 | 0.00 | 0.13 | 0.00 | 86 | 1017.5 |
| 20260506035038 | 39 | 56 | 0.0 | 0.9 | 0.00 | 0.13 | 0.00 | 86 | 1017.6 |
| 20260506034545 | 39 | 0 | 0.0 | 0.9 | 0.00 | 0.13 | 0.00 | 86 | 1017.6 |
| 20260506034033 | 39 | 0 | 0.0 | 1.7 | 0.00 | 0.13 | 0.00 | 86 | 1017.6 |
| 20260506033537 | 39 | 0 | 0.0 | 1.7 | 0.00 | 0.13 | 0.00 | 86 | 1017.6 |
| 20260506033051 | 39 | 0 | 0.0 | 1.7 | 0.00 | 0.13 | 0.00 | 86 | 1017.7 |
| 20260506032533 | 39 | 46 | 0.0 | 1.7 | 0.00 | 0.13 | 0.00 | 86 | 1017.6 |
| 20260506032033 | 39 | 76 | 0.0 | 2.6 | 0.00 | 0.13 | 0.00 | 86 | 1017.7 |
| 20260506031547 | 39 | 56 | 0.9 | 2.6 | 0.00 | 0.13 | 0.00 | 86 | 1017.7 |
| 20260506031035 | 39 | 63 | 0.9 | 2.6 | 0.00 | 0.13 | 0.00 | 86 | 1017.8 |
| 20260506030535 | 39 | 76 | 0.0 | 1.7 | 0.00 | 0.13 | 0.00 | 86 | 1017.7 |
| 20260506030048 | 39 | 0 | 0.0 | 1.7 | 0.00 | 0.13 | 0.00 | 86 | 1017.8 |
| 20260506025535 | 39 | 0 | 0.0 | 1.7 | 0.00 | 0.13 | 0.00 | 86 | 1017.7 |
| 20260506025033 | 39 | 0 | 0.0 | 1.7 | 0.00 | 0.13 | 0.00 | 86 | 1017.8 |
| 20260506024553 | 39 | 0 | 0.0 | 1.7 | 0.00 | 0.13 | 0.00 | 86 | 1017.7 |
| 20260506024033 | 39 | 0 | 0.0 | 1.7 | 0.00 | 0.13 | 0.00 | 86 | 1017.8 |
| 20260506023533 | 39 | 46 | 0.0 | 1.7 | 0.00 | 0.13 | 0.00 | 86 | 1017.7 |
| 20260506023053 | 39 | 35 | 0.0 | 1.7 | 0.00 | 0.13 | 0.00 | 87 | 1017.8 |
| 20260506022535 | 40 | 63 | 0.0 | 1.7 | 0.00 | 0.13 | 0.00 | 87 | 1017.8 |
| 20260506022034 | 40 | 0 | 0.0 | 1.7 | 0.00 | 0.13 | 0.00 | 87 | 1017.6 |
| 20260506021554 | 40 | 20 | 0.0 | 1.7 | 0.00 | 0.13 | 0.00 | 87 | 1017.8 |
| 20260506021033 | 40 | 56 | 0.0 | 1.7 | 0.00 | 0.13 | 0.00 | 87 | 1017.7 |
| 20260506020533 | 40 | 63 | 0.0 | 1.7 | 0.00 | 0.13 | 0.00 | 87 | 1017.7 |
| 20260506020048 | 40 | 56 | 0.9 | 1.7 | 0.00 | 0.13 | 0.00 | 87 | 1017.7 |
| 20260506015533 | 40 | 53 | 0.9 | 2.6 | 0.00 | 0.13 | 0.00 | 87 | 1017.8 |
| 20260506015037 | 40 | 46 | 0.9 | 2.6 | 0.00 | 0.13 | 0.00 | 87 | 1017.9 |
| 20260506014552 | 40 | 49 | 0.9 | 1.7 | 0.00 | 0.13 | 0.00 | 87 | 1017.8 |
| 20260506014035 | 40 | 46 | 0.9 | 1.7 | 0.00 | 0.13 | 0.00 | 87 | 1017.8 |
| 20260506013534 | 40 | 53 | 0.9 | 1.7 | 0.00 | 0.13 | 0.00 | 87 | 1017.8 |
| 20260506013048 | 40 | 46 | 0.0 | 1.7 | 0.00 | 0.13 | 0.00 | 87 | 1017.8 |
| 20260506012533 | 40 | 39 | 0.0 | 1.7 | 0.00 | 0.13 | 0.00 | 87 | 1017.9 |
| 20260506012035 | 40 | 0 | 0.0 | 0.9 | 0.00 | 0.13 | 0.00 | 87 | 1017.8 |
| 20260506011547 | 40 | 46 | 0.0 | 2.6 | 0.00 | 0.13 | 0.00 | 87 | 1018.0 |
| 20260506011033 | 40 | 0 | 0.0 | 2.6 | 0.00 | 0.13 | 0.00 | 87 | 1017.8 |
| 20260506010537 | 40 | 51 | 0.9 | 2.6 | 0.00 | 0.13 | 0.00 | 87 | 1017.7 |
| 20260506010054 | 40 | 39 | 0.0 | 1.7 | 0.00 | 0.13 | 0.00 | 87 | 1017.8 |
| 20260506005537 | 40 | 46 | 0.0 | 1.7 | 0.00 | 0.13 | 0.00 | 86 | 1017.9 |
| 20260506005033 | 40 | 46 | 0.0 | 1.7 | 0.00 | 0.13 | 0.00 | 86 | 1017.9 |
| 20260506004556 | 40 | 28 | 0.0 | 1.7 | 0.00 | 0.13 | 0.00 | 86 | 1017.9 |
| 20260506004033 | 40 | 0 | 0.0 | 1.7 | 0.00 | 0.13 | 0.00 | 86 | 1018.0 |
| 20260506003533 | 40 | 0 | 0.9 | 1.7 | 0.00 | 0.13 | 0.00 | 86 | 1017.9 |
| 20260506003041 | 40 | 46 | 0.9 | 1.7 | 0.00 | 0.13 | 0.00 | 85 | 1017.9 |
| 20260506002535 | 39 | 46 | 0.0 | 0.9 | 0.00 | 0.13 | 0.00 | 85 | 1017.9 |
| 20260506002033 | 39 | 0 | 0.0 | 0.9 | 0.00 | 0.13 | 0.00 | 85 | 1018.0 |
| 20260506001607 | 39 | 0 | 0.0 | 0.9 | 0.00 | 0.13 | 0.00 | 85 | 1017.9 |
| 20260506001033 | 39 | 0 | 0.0 | 0.9 | 0.00 | 0.13 | 0.00 | 84 | 1018.0 |
| 20260506000535 | 39 | 0 | 0.0 | 0.9 | 0.00 | 0.13 | 0.00 | 85 | 1017.9 |
| 20260506000049 | 39 | 178 | 0.0 | 0.9 | 0.00 | 0.13 | 0.00 | 84 | 1017.8 |
| 20260505235534 | 39 | 35 | 0.0 | 1.7 | 0.00 | 0.13 | 0.00 | 84 | 1018.0 |
| 20260505235033 | 39 | 0 | 0.0 | 1.7 | 0.00 | 0.13 | 0.00 | 84 | 1017.9 |
| 20260505234550 | 40 | 124 | 0.0 | 1.7 | 0.00 | 0.13 | 0.00 | 84 | 1018.0 |
| 20260505234033 | 40 | 35 | 0.0 | 1.7 | 0.00 | 0.13 | 0.00 | 84 | 1018.0 |
| 20260505233532 | 40 | 108 | 0.0 | 1.7 | 0.00 | 0.13 | 0.00 | 83 | 1018.0 |
| 20260505233047 | 40 | 0 | 0.0 | 1.7 | 0.00 | 0.13 | 0.00 | 83 | 1018.0 |
| 20260505232533 | 40 | 0 | 0.9 | 1.7 | 0.00 | 0.13 | 0.00 | 83 | 1018.2 |
| 20260505232034 | 40 | 76 | 0.0 | 1.7 | 0.00 | 0.13 | 0.00 | 83 | 1018.2 |
| 20260505231550 | 40 | 46 | 0.0 | 1.7 | 0.00 | 0.13 | 0.00 | 82 | 1018.2 |
| 20260505231035 | 40 | 63 | 0.0 | 1.7 | 0.00 | 0.13 | 0.00 | 82 | 1018.2 |
| 20260505230533 | 40 | 46 | 0.0 | 1.7 | 0.00 | 0.13 | 0.00 | 82 | 1018.2 |
| 20260505230044 | 40 | 53 | 0.0 | 1.7 | 0.00 | 0.13 | 0.00 | 81 | 1018.1 |
| 20260505225537 | 40 | 40 | 0.9 | 1.7 | 0.00 | 0.13 | 0.13 | 81 | 1018.2 |
| 20260505225034 | 40 | 53 | 0.9 | 1.7 | 0.00 | 0.13 | 0.13 | 81 | 1018.2 |
| 20260505224543 | 40 | 76 | 0.0 | 2.6 | 0.00 | 0.13 | 0.13 | 81 | 1018.2 |
| 20260505224033 | 41 | 0 | 0.0 | 2.6 | 0.00 | 0.13 | 0.13 | 81 | 1018.2 |
| 20260505223533 | 41 | 72 | 0.0 | 2.6 | 0.00 | 0.13 | 0.13 | 80 | 1018.2 |
| 20260505223055 | 41 | 68 | 0.0 | 2.6 | 0.00 | 0.13 | 0.13 | 80 | 1018.2 |
| 20260505222534 | 41 | 89 | 0.0 | 3.5 | 0.00 | 0.13 | 0.13 | 80 | 1018.2 |
| 20260505222033 | 41 | 28 | 0.9 | 3.5 | 0.00 | 0.13 | 0.13 | 80 | 1018.2 |
| 20260505221552 | 41 | 46 | 0.9 | 3.5 | 0.00 | 0.13 | 0.13 | 80 | 1018.1 |
| 20260505221035 | 41 | 23 | 0.9 | 7.0 | 0.00 | 0.13 | 0.13 | 80 | 1018.2 |
| 20260505220532 | 42 | 77 | 1.7 | 7.0 | 0.00 | 0.13 | 0.13 | 80 | 1018.0 |
| 20260505220044 | 42 | 28 | 0.9 | 5.2 | 0.00 | 0.13 | 0.13 | 80 | 1018.1 |
| 20260505215534 | 42 | 53 | 1.7 | 5.2 | 0.00 | 0.13 | 0.13 | 80 | 1018.1 |
| 20260505215033 | 42 | 56 | 1.7 | 5.2 | 0.00 | 0.13 | 0.13 | 80 | 1018.2 |
| 20260505214600 | 42 | 46 | 0.9 | 3.5 | 0.00 | 0.13 | 0.13 | 80 | 1018.1 |
| 20260505214033 | 42 | 82 | 0.0 | 4.3 | 0.00 | 0.13 | 0.13 | 80 | 1018.0 |
| 20260505213533 | 42 | 33 | 0.9 | 6.1 | 0.00 | 0.13 | 0.13 | 79 | 1018.0 |
| 20260505213055 | 43 | 100 | 2.6 | 6.1 | 0.00 | 0.13 | 0.13 | 79 | 1017.9 |
| 20260505212533 | 43 | 161 | 0.9 | 6.1 | 0.00 | 0.13 | 0.13 | 79 | 1017.9 |
| 20260505212033 | 43 | 89 | 1.7 | 7.0 | 0.00 | 0.13 | 0.13 | 79 | 1017.9 |
| 20260505211545 | 43 | 35 | 1.7 | 7.0 | 0.00 | 0.13 | 0.13 | 79 | 1017.9 |
| 20260505211033 | 43 | 70 | 0.9 | 2.6 | 0.00 | 0.13 | 0.13 | 78 | 1017.9 |
| 20260505210534 | 43 | 59 | 0.9 | 4.3 | 0.00 | 0.13 | 0.13 | 78 | 1017.8 |
| 20260505210052 | 43 | 0 | 1.7 | 6.1 | 0.00 | 0.13 | 0.13 | 78 | 1017.8 |
| 20260505205535 | 43 | 65 | 0.9 | 7.0 | 0.00 | 0.13 | 0.13 | 78 | 1017.9 |
| 20260505205036 | 43 | 49 | 1.7 | 7.0 | 0.00 | 0.13 | 0.13 | 78 | 1017.8 |
| 20260505204545 | 43 | 46 | 1.7 | 6.1 | 0.00 | 0.13 | 0.13 | 78 | 1017.9 |
| 20260505204033 | 44 | 63 | 1.7 | 5.2 | 0.00 | 0.13 | 0.13 | 78 | 1017.9 |
| 20260505203533 | 44 | 65 | 1.7 | 5.2 | 0.00 | 0.13 | 0.13 | 78 | 1017.8 |
| 20260505203051 | 44 | 174 | 0.9 | 7.0 | 0.00 | 0.13 | 0.13 | 78 | 1017.8 |
| 20260505202533 | 44 | 150 | 2.6 | 8.7 | 0.00 | 0.13 | 0.13 | 78 | 1017.9 |
| 20260505202036 | 44 | 347 | 1.7 | 8.7 | 0.00 | 0.13 | 0.13 | 78 | 1017.8 |
| 20260505201554 | 44 | 63 | 1.7 | 8.7 | 0.00 | 0.13 | 0.13 | 78 | 1017.7 |
| 20260505201033 | 44 | 101 | 2.6 | 8.7 | 0.00 | 0.13 | 0.13 | 78 | 1017.8 |
| 20260505200533 | 44 | 75 | 2.6 | 8.7 | 0.00 | 0.13 | 0.13 | 78 | 1017.7 |
| 20260505200046 | 44 | 42 | 2.6 | 7.8 | 0.00 | 0.13 | 0.13 | 78 | 1017.7 |
| 20260505195533 | 45 | 41 | 1.7 | 6.1 | 0.00 | 0.13 | 0.13 | 77 | 1017.5 |
| 20260505195035 | 45 | 13 | 1.7 | 6.1 | 0.00 | 0.13 | 0.13 | 77 | 1017.5 |
| 20260505194543 | 45 | 23 | 1.7 | 7.0 | 0.00 | 0.13 | 0.13 | 77 | 1017.6 |
| 20260505194034 | 45 | 52 | 2.6 | 7.0 | 0.00 | 0.13 | 0.13 | 76 | 1017.6 |
| 20260505193535 | 45 | 72 | 2.6 | 11.3 | 0.00 | 0.13 | 0.13 | 76 | 1017.4 |
| 20260505193048 | 45 | 65 | 3.5 | 11.3 | 0.00 | 0.13 | 0.13 | 76 | 1017.4 |
| 20260505192532 | 45 | 27 | 2.6 | 9.6 | 0.00 | 0.13 | 0.13 | 77 | 1017.4 |
| 20260505192032 | 45 | 67 | 1.7 | 7.0 | 0.00 | 0.13 | 0.13 | 77 | 1017.5 |
| 20260505191552 | 45 | 65 | 2.6 | 7.0 | 0.00 | 0.13 | 0.13 | 77 | 1017.4 |
| 20260505191033 | 46 | 95 | 1.7 | 7.0 | 0.00 | 0.13 | 0.13 | 76 | 1017.4 |
| 20260505190533 | 46 | 49 | 2.6 | 7.0 | 0.00 | 0.13 | 0.13 | 76 | 1017.2 |
| 20260505190104 | 46 | 223 | 0.9 | 5.2 | 0.00 | 0.13 | 0.13 | 76 | 1017.3 |
| 20260505185535 | 46 | 54 | 1.7 | 6.1 | 0.00 | 0.13 | 0.13 | 75 | 1017.2 |
| 20260505185033 | 46 | 49 | 2.6 | 6.1 | 0.00 | 0.13 | 0.13 | 75 | 1017.3 |
| 20260505184601 | 46 | 96 | 2.6 | 7.8 | 0.00 | 0.13 | 0.13 | 75 | 1017.4 |
| 20260505184033 | 46 | 96 | 2.6 | 7.8 | 0.00 | 0.13 | 0.13 | 75 | 1017.2 |
| 20260505183537 | 46 | 76 | 2.6 | 9.6 | 0.00 | 0.13 | 0.13 | 74 | 1017.4 |
| 20260505183056 | 46 | 13 | 4.3 | 9.6 | 0.00 | 0.13 | 0.13 | 75 | 1017.3 |
| 20260505182536 | 47 | 47 | 3.5 | 10.4 | 0.00 | 0.13 | 0.13 | 75 | 1017.3 |
| 20260505182035 | 47 | 51 | 4.3 | 10.4 | 0.00 | 0.13 | 0.13 | 74 | 1017.3 |
| 20260505181553 | 47 | 89 | 2.6 | 8.7 | 0.00 | 0.13 | 0.13 | 74 | 1017.1 |
| 20260505181036 | 47 | 66 | 3.5 | 8.7 | 0.00 | 0.13 | 0.13 | 74 | 1017.1 |
| 20260505180535 | 47 | 65 | 1.7 | 7.8 | 0.00 | 0.13 | 0.13 | 74 | 1017.1 |
| 20260505180056 | 47 | 20 | 2.6 | 7.8 | 0.00 | 0.13 | 0.13 | 73 | 1017.1 |
| 20260505175534 | 47 | 74 | 3.5 | 8.7 | 0.00 | 0.13 | 0.13 | 73 | 1017.1 |
| 20260505175034 | 47 | 137 | 1.7 | 8.7 | 0.00 | 0.13 | 0.13 | 73 | 1017.3 |
| 20260505174550 | 47 | 39 | 3.5 | 9.6 | 0.00 | 0.13 | 0.13 | 73 | 1017.2 |
| 20260505174033 | 48 | 77 | 3.5 | 9.6 | 0.00 | 0.13 | 0.13 | 73 | 1017.2 |
| 20260505173534 | 48 | 56 | 3.5 | 8.7 | 0.00 | 0.13 | 0.13 | 73 | 1017.0 |
| 20260505173049 | 48 | 342 | 3.5 | 8.7 | 0.00 | 0.13 | 0.13 | 73 | 1017.2 |
| 20260505172534 | 48 | 32 | 1.7 | 9.6 | 0.00 | 0.13 | 0.13 | 73 | 1017.1 |
| 20260505172033 | 48 | 103 | 2.6 | 9.6 | 0.00 | 0.13 | 0.13 | 73 | 1017.0 |
| 20260505171548 | 48 | 1 | 2.6 | 9.6 | 0.00 | 0.13 | 0.13 | 73 | 1016.9 |
| 20260505171033 | 48 | 39 | 2.6 | 9.6 | 0.00 | 0.13 | 0.13 | 72 | 1017.0 |
| 20260505170533 | 48 | 49 | 2.6 | 9.6 | 0.00 | 0.13 | 0.13 | 72 | 1017.1 |
| 20260505170054 | 48 | 42 | 3.5 | 11.3 | 0.00 | 0.13 | 0.13 | 73 | 1017.1 |
| 20260505165534 | 48 | 314 | 3.5 | 11.3 | 0.00 | 0.13 | 0.13 | 73 | 1017.0 |
| 20260505165034 | 48 | 95 | 3.5 | 10.4 | 0.00 | 0.13 | 0.13 | 75 | 1017.0 |
| 20260505164547 | 48 | 49 | 2.6 | 7.8 | 0.00 | 0.13 | 0.13 | 75 | 1016.9 |
| 20260505164034 | 48 | 105 | 2.6 | 7.8 | 0.00 | 0.13 | 0.13 | 75 | 1017.0 |
| 20260505163533 | 48 | 53 | 2.6 | 8.7 | 0.00 | 0.13 | 0.13 | 75 | 1017.0 |
| 20260505163055 | 48 | 52 | 3.5 | 8.7 | 0.00 | 0.13 | 0.13 | 75 | 1017.0 |
| 20260505162533 | 48 | 130 | 3.5 | 9.6 | 0.00 | 0.13 | 0.13 | 75 | 1016.9 |
| 20260505162033 | 48 | 72 | 5.2 | 9.6 | 0.00 | 0.13 | 0.13 | 75 | 1016.8 |
| 20260505161555 | 49 | 113 | 2.6 | 11.3 | 0.00 | 0.13 | 0.13 | 76 | 1016.8 |
| 20260505161034 | 49 | 49 | 2.6 | 11.3 | 0.00 | 0.13 | 0.13 | 77 | 1016.7 |
| 20260505160536 | 49 | 37 | 2.6 | 7.0 | 0.00 | 0.13 | 0.13 | 76 | 1016.6 |
| 20260505153052 | 49 | 161 | 3.5 | 9.6 | 0.00 | 0.13 | 0.13 | 79 | 1016.3 |
| 20260505152532 | 49 | 13 | 1.7 | 5.2 | 0.00 | 0.13 | 0.13 | 78 | 1016.4 |
| 20260505152033 | 49 | 65 | 1.7 | 10.4 | 0.00 | 0.13 | 0.13 | 78 | 1016.4 |
| 20260505151542 | 49 | 44 | 3.5 | 12.2 | 0.00 | 0.13 | 0.13 | 78 | 1016.4 |
| 20260505151034 | 49 | 83 | 4.3 | 12.2 | 0.00 | 0.13 | 0.13 | 79 | 1016.3 |
| 20260505150536 | 49 | 89 | 2.6 | 8.7 | 0.00 | 0.13 | 0.13 | 79 | 1016.4 |
| 20260505150107 | 50 | 32 | 2.6 | 7.8 | 0.02 | 0.13 | 0.13 | 79 | 1016.2 |
| 20260505140534 | 53 | 93 | 2.6 | 11.3 | 0.03 | 0.11 | 0.11 | 78 | 1016.2 |
| 20260505125033 | 52 | 305 | 0.9 | 4.3 | 0.01 | 0.07 | 0.07 | 77 | 1016.0 |
| 20260505124547 | 52 | 314 | 0.9 | 3.5 | 0.01 | 0.06 | 0.06 | 76 | 1015.9 |